Stations météo

réclame
Mon MeteoGroup
Grenoble/St.Geoirs, France (7486): Température de l'air & dewpoint: 14.11.2018 13:00:00 - 20.11.2018 13:00:00 (CET)Grenoble/St.Geoirs, France (7486): Température de l'air 5cm: 14.11.2018 13:00:00 - 20.11.2018 13:00:00 (CET)Grenoble/St.Geoirs, France (7486): Température de l'air -20cm & Température de l'air -100cm: 14.11.2018 13:00:00 - 20.11.2018 13:00:00 (CET)Grenoble/St.Geoirs, France (7486): Vitesse du vent & gusts: 14.11.2018 13:00:00 - 20.11.2018 13:00:00 (CET)Grenoble/St.Geoirs, France (7486): Direction du vent: 14.11.2018 13:00:00 - 20.11.2018 13:00:00 (CET)Grenoble/St.Geoirs, France (7486): reduced air pressure: 14.11.2018 13:00:00 - 20.11.2018 13:00:00 (CET)Grenoble/St.Geoirs, France (7486): visibility: 14.11.2018 13:00:00 - 20.11.2018 13:00:00 (CET)Grenoble/St.Geoirs, France (7486): Ensoleillement: 14.11.2018 13:00:00 - 20.11.2018 13:00:00 (CET)Grenoble/St.Geoirs, France (7486): Quantités de précipitations: 14.11.2018 13:00:00 - 20.11.2018 13:00:00 (CET)
Date & Time tt [°C] td [°C] tt 5cm [°C] tt -20cm [°C] tt -100cm [°C] ff [km/h] ff [knt] fx [km/h] fx [knt] dd ppp [hPa] vv [km] sd [min] rr [mm]
20.11.2018 13:00:00 - - - - - - - - - - - - - -
20.11.2018 12:00:00 2,5 1,0 2,3 8,9 12,7 15 8 23 12 E 1003,7 2,5 42 0,0
20.11.2018 11:00:00 1,8 0,3 0,2 8,9 12,7 14 8 20 11 ENE 1004,3 5 0 0,0
20.11.2018 10:00:00 1,0 0,0 1,0 9,0 12,8 16 9 23 12 E 1003,5 3,5 15 0,0
20.11.2018 09:00:00 1,0 0,0 0,0 9,0 12,7 11 6 24 13 E 1003,6 4,6 0 0,0
20.11.2018 08:00:00 0,8 -0,2 0,1 9,0 12,8 10 5 14 8 ESE 1003,2 3,5 0 0,0
20.11.2018 07:00:00 0,7 -0,3 -0,4 9,0 12,8 10 5 23 12 ESE 1002,8 3,6 0 0,0
20.11.2018 06:00:00 0,6 -0,3 -0,7 9,1 12,8 16 9 22 12 E 1002,6 3,5 0 0,0
20.11.2018 05:00:00 -0,1 -1,0 -0,9 9,1 12,8 12 6 15 8 E 1002,8 3,2 0 0,2
20.11.2018 04:00:00 -0,4 -1,4 -0,7 9,2 12,8 5 3 10 5 NNE 1003,2 1,5 0 0,8
20.11.2018 03:00:00 -0,4 -1,4 -0,6 9,2 12,8 5 3 9 5 E 1003,7 1,3 0 0,4
20.11.2018 02:00:00 -0,4 -1,2 -0,5 9,3 12,9 8 4 9 5 E 1004,3 0,9 0 1,0
20.11.2018 01:00:00 -0,3 -1,3 -0,3 9,3 12,9 2 1 7 4 SSE 1004,6 0,7 0 2,0
20.11.2018 00:00:00 -0,3 -1,1 -0,4 9,3 12,9 6 4 11 6 WSW 1004,9 0,5 0 0,6
19.11.2018 23:00:00 -0,2 -1,2 -0,1 9,4 12,9 5 3 8 5 NW 1004,6 1,0 0 1,0
19.11.2018 22:00:00 0,0 -1,1 0,0 9,5 12,9 0 0 9 5 N 1004,8 0,6 0 1,8
19.11.2018 21:00:00 0,2 -0,8 0,0 9,4 12,9 5 3 8 4 W 1005,0 0,3 0 1,0
19.11.2018 20:00:00 0,4 -0,9 0,0 9,5 12,9 4 2 5 3 W 1005,3 1,8 0 0,0
19.11.2018 19:00:00 0,7 -0,9 0,0 9,5 12,9 4 2 6 3 W 1005,4 1,5 0 0,6
19.11.2018 18:00:00 1,2 -0,9 0,2 9,5 12,9 4 2 14 7 WNW 1005,7 2,9 0 0,2
19.11.2018 17:00:00 1,9 -0,4 1,9 9,5 12,9 10 5 21 11 N 1005,7 6 0 0,0
19.11.2018 16:00:00 1,9 0,0 2,2 9,5 13,0 15 8 22 12 NNW 1005,9 5 0 0,0
19.11.2018 15:00:00 2,8 -0,3 3,1 9,5 13,0 12 7 19 10 NNW 1006,0 9 0 0,0
19.11.2018 14:00:00 3,1 -0,4 3,7 9,6 13,0 7 4 12 6 NW 1006,4 10 0 0,0
19.11.2018 13:00:00 3,1 -0,4 3,8 9,6 13,0 6 3 13 7 NW 1007,3 12 0 0,0
19.11.2018 12:00:00 2,8 -0,3 3,7 9,6 13,0 11 6 17 9 NNW 1008,3 10 0 0,0
19.11.2018 11:00:00 3,0 -0,8 3,5 9,7 13,0 5 3 14 8 NNE 1009,1 9 0 0,0
19.11.2018 10:00:00 2,7 -0,6 2,9 9,7 13,0 6 3 14 8 NNE 1009,3 8 0 0,0
19.11.2018 09:00:00 2,3 -1,0 1,8 9,7 13,0 2 1 16 8 N 1009,6 8 0 0,0
19.11.2018 08:00:00 1,9 -1,0 1,6 9,8 13,0 5 3 14 8 NNE 1010,0 7 0 0,0
19.11.2018 07:00:00 1,7 -1,0 1,5 9,8 13,0 2 1 16 8 NNE 1010,3 7 0 0,0
19.11.2018 06:00:00 1,8 -0,6 1,2 9,9 13,0 10 5 16 9 NNE 1010,7 6 0 0,0
19.11.2018 05:00:00 1,4 -0,5 0,4 10,0 13,1 5 3 18 10 E 1011,6 6 0 0,0
19.11.2018 04:00:00 0,8 -0,2 -0,6 10,0 13,0 4 2 8 4 S 1012,2 4,4 0 0,0
19.11.2018 03:00:00 0,3 -0,7 -2,5 10,1 13,0 3 2 9 5 E 1013,3 3,1 0 0,0
19.11.2018 02:00:00 0,6 -0,7 -4,0 10,1 13,1 4 2 11 6 NNW 1014,1 4,2 0 0,0
19.11.2018 01:00:00 0,8 -0,8 -2,8 10,2 13,1 3 1 13 7 E 1015,1 6 0 0,0
19.11.2018 00:00:00 1,8 -0,1 -2,0 10,2 13,1 12 6 18 10 NE 1015,4 6 0 0,0
18.11.2018 23:00:00 3,0 0,6 2,9 10,3 13,1 9 5 14 8 NNE 1015,8 6 0 0,0
18.11.2018 22:00:00 3,1 0,2 2,9 10,3 13,1 8 4 18 10 ENE 1015,9 7 0 0,0
18.11.2018 21:00:00 3,4 0,8 2,9 10,3 13,2 9 5 15 8 N 1016,6 6 0 0,0
18.11.2018 20:00:00 3,4 1,0 -0,4 10,3 13,2 9 5 16 9 NNE 1017,2 3,5 0 0,0
18.11.2018 19:00:00 2,6 0,7 -1,6 10,3 13,2 6 4 14 7 NNE 1017,7 4,3 0 0,0
18.11.2018 18:00:00 3,0 0,7 0,1 10,3 13,2 5 3 29 16 ESE 1017,8 5 0 0,0
18.11.2018 17:00:00 5,2 2,2 4,8 10,2 13,2 16 9 26 14 N 1017,6 7 0 0,0
18.11.2018 16:00:00 7,0 2,3 7,4 10,2 13,2 16 9 24 13 N 1017,1 9 51 0,0
18.11.2018 15:00:00 8,7 1,8 13,5 10,2 13,2 5 3 11 6 NW 1016,9 13 60 0,0
18.11.2018 14:00:00 8,2 1,8 15,3 10,2 13,2 5 3 11 6 NNW 1017,4 14 60 0,0
18.11.2018 13:00:00 8,5 2,1 12,8 10,3 13,2 5 3 16 9 SSE 1018,4 17 60 0,0
18.11.2018 12:00:00 7,4 2,7 11,4 10,3 13,2 5 3 11 6 SSE 1019,4 9 60 0,0
18.11.2018 11:00:00 4,8 2,2 6,1 10,4 13,2 3 1 12 6 SW 1020,8 8 60 0,0
18.11.2018 10:00:00 2,5 1,5 2,3 10,5 13,2 8 4 11 6 WSW 1021,2 4,2 60 0,0
18.11.2018 09:00:00 0,5 -0,2 -5,2 10,6 13,2 3 2 6 4 W 1021,1 3,3 54 0,0
18.11.2018 08:00:00 -1,1 -2,1 -5,6 10,7 13,2 2 1 7 4 ENE 1021,4 0,7 0 0,0
18.11.2018 07:00:00 -0,1 -1,1 -5,2 10,8 13,2 5 3 10 5 E 1021,0 4,9 0 0,0
18.11.2018 06:00:00 0,5 -1,0 -4,6 10,9 13,2 2 1 9 5 NE 1020,8 7 0 0,0
18.11.2018 05:00:00 0,8 -0,5 -3,4 10,9 13,3 4 2 22 12 NE 1020,8 7 0 0,0
18.11.2018 04:00:00 0,3 -0,7 -2,2 11,0 13,3 11 6 16 8 E 1021,3 6 0 0,0
18.11.2018 03:00:00 1,2 0,2 -2,4 11,0 13,2 8 5 11 6 ESE 1021,4 5 0 0,0
18.11.2018 02:00:00 2,2 1,2 -0,6 11,1 13,3 8 4 11 6 ENE 1021,4 3,5 0 0,0
18.11.2018 01:00:00 1,8 0,2 -0,2 11,1 13,3 10 5 12 6 E 1022,0 4,1 0 0,0
18.11.2018 00:00:00 4,9 3,2 3,6 11,1 13,3 7 4 11 6 ENE 1021,9 7 0 0,0
17.11.2018 23:00:00 5,5 4,1 2,4 11,2 13,3 6 3 10 6 NNE 1022,0 6 0 0,0
17.11.2018 22:00:00 6,3 4,8 5,8 11,2 13,3 6 3 9 5 WNW 1021,7 27 0 0,0
17.11.2018 21:00:00 6,3 4,8 5,9 11,2 13,3 4 2 10 5 NW 1021,7 26 0 0,0
17.11.2018 20:00:00 6,4 4,9 5,8 11,2 13,3 8 4 13 7 NNW 1021,8 10 0 0,0
17.11.2018 19:00:00 6,3 4,9 5,9 11,2 13,3 10 6 15 8 W 1021,5 19 0 0,2
17.11.2018 18:00:00 6,4 5,0 6,0 11,3 13,3 11 6 18 10 W 1021,2 28 0 0,0
17.11.2018 17:00:00 7,1 5,7 6,5 11,3 13,3 8 4 13 7 WNW 1020,6 17 0 0,8
17.11.2018 16:00:00 7,3 6,1 7,0 11,3 13,3 4 2 17 9 SSW 1020,2 4,9 0 1,4
17.11.2018 15:00:00 7,2 6,1 7,0 11,3 13,3 13 7 18 10 E 1019,5 3,1 0 0,8
17.11.2018 14:00:00 7,1 6,0 7,0 11,3 13,3 10 5 17 9 E 1019,5 4,8 0 0,2
17.11.2018 13:00:00 7,2 5,8 7,2 11,3 13,3 9 5 17 9 ENE 1019,8 3,0 0 0,2
17.11.2018 12:00:00 7,3 5,9 7,2 11,3 13,3 11 6 19 11 NE 1020,2 3,2 0 0,0
17.11.2018 11:00:00 7,7 5,0 8,1 11,3 13,3 13 7 21 11 ENE 1020,5 9 0 0,0
17.11.2018 10:00:00 7,8 4,9 7,9 11,4 13,3 10 5 16 9 E 1020,5 10 0 0,0
17.11.2018 09:00:00 7,6 5,1 7,5 11,4 13,3 12 7 19 11 E 1020,6 9 0 0,0
17.11.2018 08:00:00 7,6 4,5 7,2 11,4 13,3 10 6 18 10 E 1020,8 11 0 0,0
17.11.2018 07:00:00 7,4 4,7 6,8 11,4 13,3 8 5 14 8 ESE 1020,9 10 0 0,0
17.11.2018 06:00:00 7,1 4,4 6,7 11,4 13,3 12 6 22 12 E 1021,0 10 0 0,0
17.11.2018 05:00:00 7,5 4,6 7,3 11,4 13,3 16 8 23 13 E 1021,7 10 0 0,0
17.11.2018 04:00:00 7,7 5,0 7,5 11,5 13,4 13 7 19 10 E 1022,0 10 0 0,0
17.11.2018 03:00:00 7,9 5,4 7,7 11,5 13,3 9 5 15 8 ENE 1022,5 9 0 0,0
17.11.2018 02:00:00 7,8 5,4 7,6 11,5 13,3 6 3 10 5 NE 1022,7 8 0 0,0
17.11.2018 01:00:00 7,6 5,9 7,4 11,6 13,3 6 3 8 5 E 1023,1 8 0 0,0
17.11.2018 00:00:00 7,3 5,8 6,8 11,6 13,4 4 2 8 5 ENE 1023,4 7 0 0,0
16.11.2018 23:00:00 6,8 5,4 5,9 11,6 13,4 0 0 9 5 N 1023,5 4,9 0 0,0
16.11.2018 22:00:00 6,0 4,8 5,0 11,7 13,4 7 4 9 5 SE 1023,5 4,5 0 0,0
16.11.2018 21:00:00 4,9 3,9 -0,8 11,7 13,4 6 3 7 4 ESE 1024,1 3,7 0 0,0
16.11.2018 20:00:00 4,9 3,4 -0,3 11,7 13,4 3 2 6 4 ENE 1024,1 4,4 0 0,0
16.11.2018 19:00:00 6,1 3,8 1,7 11,7 13,4 5 3 16 9 SE 1024,0 8 0 0,0
16.11.2018 18:00:00 7,9 5,2 6,6 11,6 13,4 10 6 18 10 NNE 1023,5 11 0 0,0
16.11.2018 17:00:00 9,5 6,0 9,1 11,6 13,4 13 7 19 10 NNE 1023,2 13 11 0,0
16.11.2018 16:00:00 10,3 6,3 10,4 11,5 13,4 9 5 16 9 NNE 1023,0 16 3 0,0
16.11.2018 15:00:00 11,1 5,8 13,2 11,5 13,4 8 5 14 7 N 1023,0 17 0 0,0
16.11.2018 14:00:00 11,4 5,9 14,8 11,5 13,4 8 4 14 8 NNW 1023,2 14 36 0,0
16.11.2018 13:00:00 10,6 6,2 12,7 11,4 13,4 9 5 19 10 N 1023,7 16 1 0,0
16.11.2018 12:00:00 10,2 6,0 10,8 11,5 13,4 11 6 23 12 NNE 1024,3 13 23 0,0
16.11.2018 11:00:00 9,5 5,7 10,5 11,5 13,4 13 7 24 13 NE 1024,9 6 26 0,0
16.11.2018 10:00:00 9,4 6,3 9,3 11,6 13,4 17 9 24 13 NE 1024,5 10 60 0,0
16.11.2018 09:00:00 8,3 5,9 6,1 11,6 13,4 13 7 22 12 NE 1024,6 8 27 0,0
16.11.2018 08:00:00 6,8 5,3 4,2 11,7 13,4 16 8 21 12 NE 1024,4 7 0 0,0
16.11.2018 07:00:00 6,6 4,9 4,4 11,8 13,4 7 4 17 9 NE 1024,2 7 0 0,0
16.11.2018 06:00:00 6,7 4,9 2,8 11,8 13,4 9 5 24 13 ENE 1024,2 8 0 0,0
16.11.2018 05:00:00 5,3 3,6 3,4 11,9 13,4 11 6 19 11 E 1024,3 7 0 0,0
16.11.2018 04:00:00 7,4 5,4 6,4 11,9 13,4 16 8 27 14 ENE 1023,9 7 0 0,0
16.11.2018 03:00:00 7,7 5,8 6,5 12,0 13,4 18 10 29 16 ENE 1024,2 8 0 0,0
16.11.2018 02:00:00 8,0 6,1 7,0 12,0 13,4 18 10 30 16 ENE 1024,4 8 0 0,0
16.11.2018 01:00:00 8,4 6,4 6,9 12,0 13,4 22 12 32 17 ENE 1024,1 8 0 0,0
16.11.2018 00:00:00 8,2 6,5 6,5 12,1 13,4 18 10 25 13 E 1024,2 8 0 0,0
15.11.2018 23:00:00 8,3 6,6 6,9 12,1 13,4 18 10 26 14 E 1023,9 11 0 0,0
15.11.2018 22:00:00 8,1 6,2 6,6 12,2 13,4 18 10 25 14 E 1024,0 11 0 0,0
15.11.2018 21:00:00 7,8 5,8 6,7 12,2 13,4 17 9 23 12 E 1024,0 13 0 0,0
15.11.2018 20:00:00 9,9 7,0 7,4 12,2 13,4 16 8 21 12 ENE 1023,6 13 0 0,0
15.11.2018 19:00:00 10,0 7,9 5,7 12,1 13,4 14 8 17 9 ENE 1023,6 12 0 0,0
15.11.2018 18:00:00 9,2 6,8 5,9 12,1 13,4 9 5 11 6 ESE 1023,5 13 0 0,0
15.11.2018 17:00:00 12,9 7,8 9,9 12,1 13,4 7 4 11 6 SE 1023,0 16 44 0,0
15.11.2018 16:00:00 16,0 8,2 18,0 12,0 13,4 4 2 8 4 SSE 1022,7 19 60 0,0
15.11.2018 15:00:00 16,0 8,2 15,8 11,9 13,4 3 2 7 4 SW 1023,1 17 14 0,0
15.11.2018 14:00:00 15,2 8,0 17,6 11,9 13,4 6 3 19 10 ESE 1023,4 14 51 0,0
15.11.2018 13:00:00 15,0 8,0 17,0 12,0 13,4 16 9 28 15 E 1023,8 12 60 0,0
15.11.2018 12:00:00 13,6 7,6 14,7 12,0 13,4 22 12 31 17 E 1024,4 11 60 0,0
15.11.2018 11:00:00 12,4 7,7 13,2 12,0 13,4 22 12 32 18 E 1025,2 10 60 0,0
15.11.2018 10:00:00 11,5 8,2 10,9 12,1 13,4 22 12 34 18 E 1025,1 10 60 0,0
15.11.2018 09:00:00 9,7 7,5 7,5 12,1 13,4 21 12 32 17 E 1025,3 9 60 0,0
15.11.2018 08:00:00 7,8 6,6 6,1 12,2 13,4 17 9 29 16 ENE 1025,6 7 0 0,0
15.11.2018 07:00:00 7,9 6,5 6,9 12,2 13,4 24 13 30 16 E 1025,2 7 0 0,0
15.11.2018 06:00:00 7,9 6,2 7,1 12,3 13,4 19 10 29 16 E 1025,2 8 0 0,0
15.11.2018 05:00:00 8,9 7,0 7,3 12,3 13,4 21 11 29 16 ENE 1025,1 9 0 0,0
15.11.2018 04:00:00 9,1 7,4 7,3 12,4 13,4 19 10 28 15 E 1025,1 8 0 0,0
15.11.2018 03:00:00 9,1 7,2 7,8 12,4 13,4 20 11 27 15 E 1025,4 9 0 0,0
15.11.2018 02:00:00 9,2 7,6 7,3 12,5 13,4 17 9 24 13 E 1025,5 9 0 0,0
15.11.2018 01:00:00 8,9 7,0 8,0 12,5 13,3 18 10 29 16 E 1025,8 9 0 0,0
15.11.2018 00:00:00 10,0 7,9 7,0 12,6 13,4 17 9 29 15 ENE 1026,0 11 0 0,0
14.11.2018 23:00:00 9,0 6,8 7,7 12,6 13,4 12 6 24 13 E 1026,2 12 0 0,0
14.11.2018 22:00:00 10,8 7,8 8,3 12,6 13,3 14 7 23 12 ENE 1026,0 12 0 0,0
14.11.2018 21:00:00 10,6 8,2 6,9 12,6 13,3 13 7 18 10 ENE 1026,0 11 0 0,0
14.11.2018 20:00:00 8,6 7,4 6,1 12,6 13,4 12 7 16 8 E 1026,4 8 0 0,0
14.11.2018 19:00:00 9,3 7,4 7,5 12,6 13,4 10 5 12 7 E 1026,3 9 0 0,0
14.11.2018 18:00:00 11,5 8,9 7,6 12,5 13,3 5 3 11 6 E 1025,9 14 0 0,0
14.11.2018 17:00:00 13,5 9,5 10,5 12,5 13,3 8 4 13 7 E 1025,5 18 32 0,0
14.11.2018 16:00:00 15,6 9,9 16,6 12,4 13,3 9 5 12 7 E 1025,4 20 60 0,0
14.11.2018 15:00:00 15,8 10,3 19,5 12,4 13,3 7 4 14 8 ENE 1025,5 13 60 0,0
14.11.2018 14:00:00 15,2 10,0 20,6 12,3 13,3 6 3 13 7 NE 1026,0 18 60 0,0
14.11.2018 13:00:00 14,2 9,6 19,0 12,3 13,3 4 2 13 7 N 1026,7 17 54 0,0

tt = Température de l'air
td = dewpoint
tt 5cm = Température de l'air 5cm
tt -20cm = Température de l'air -20cm
tt -100cm = Température de l'air -100cm
ff = Vitesse du vent
fx = gusts
dd = Direction du vent
ppp = reduced air pressure
vv = visibility
sd = Ensoleillement
rr = Quantités de précipitations

stations d'obs. à proximité